Weather History for KSOP - October, 2012

Change the Weather History Date:

Saturday, October 27, 2012

  Actual Average Record
Temperature  
Mean Temperature 63 °F -  
Max Temperature 66 °F 67 °F 86 °F (2010)
Min Temperature 60 °F 44 °F 30 °F (2005)
Degree Days  
Heating Degree Days 2    
Growing Degree Days 13 (Base 50)    
Moisture  
Dew Point 55 °F    
Average Humidity 73    
Maximum Humidity 88    
Minimum Humidity 64    
Precipitation  
Precipitation 0.00 in - - ()
Sea Level Pressure  
Sea Level Pressure 29.76 in    
Wind  
Wind Speed 10 mph (NNE)    
Max Wind Speed 15 mph    
Max Gust Speed 24 mph    
Visibility 10 miles    
Events      
Averages and records for this station are not official NWS values.
T = Trace of Precipitation, MM = Missing Value Source: NWS Daily Summary

Daily Weather History Graph

Daily Weather History Graph

Search for Another Location

Airport or City:

Trip Planner

Search our weather history database for the weather conditions in past years. The results will help you decide how hot, cold, wet, or windy it might be!

Date:

Astronomy

Oct. 27, 2012 Rise Set
Actual Time 7:34 AM EDT 6:27 PM EDT
Civil Twilight 7:08 AM EDT 6:53 PM EDT
Nautical Twilight 6:38 AM EDT 7:23 PM EDT
Astronomical Twilight 6:09 AM EDT 7:52 PM EDT
Moon 5:10 PM EDT (10/27) 5:31 AM EDT (10/27)
Length of Visible Light 11h 44m
Length of Day
10h 52m
Waxing Gibbous, 96% of the Moon is Illuminated
Oct 27
Waxing Gibbous
Oct 29
Full
Nov 6
Last Quarter
Nov 13
New
Nov 20
First Quarter

Hourly Weather History & Observations

Time (EDT) Temp. Dew Point Humidity Pressure Visibility Wind Dir Wind Speed Gust Speed Precip Events Conditions
12:35 AM 64.4 °F 59.0 °F 83% 29.90 in 10.0 mi NE 6.9 mph - N/A   Overcast
12:55 AM 64.4 °F 59.0 °F 83% 29.90 in 10.0 mi NNE 9.2 mph - N/A   Overcast
1:15 AM 64.4 °F 60.8 °F 88% 29.89 in 10.0 mi NE 9.2 mph 16.1 mph N/A   Overcast
1:35 AM 64.4 °F 60.8 °F 88% 29.88 in 10.0 mi NE 9.2 mph - N/A   Overcast
1:55 AM 64.4 °F 60.8 °F 88% 29.87 in 10.0 mi NE 12.7 mph 16.1 mph N/A   Overcast
2:15 AM 64.4 °F 60.8 °F 88% 29.86 in 10.0 mi NE 12.7 mph 18.4 mph N/A   Overcast
2:35 AM 64.4 °F 60.8 °F 88% 29.85 in 10.0 mi NE 9.2 mph - N/A   Overcast
2:55 AM 64.4 °F 59.0 °F 83% 29.84 in 10.0 mi NE 9.2 mph - N/A   Overcast
3:15 AM 64.4 °F 59.0 °F 83% 29.83 in 10.0 mi NNE 6.9 mph - N/A   Overcast
3:35 AM 64.4 °F 59.0 °F 83% 29.82 in 10.0 mi NE 8.1 mph - N/A   Overcast
3:55 AM 64.4 °F 59.0 °F 83% 29.81 in 10.0 mi NNE 8.1 mph - N/A   Overcast
4:35 AM 64.4 °F 59.0 °F 83% 29.80 in 10.0 mi NE 9.2 mph - N/A   Overcast
4:55 AM 64.4 °F 59.0 °F 83% 29.80 in 10.0 mi NE 9.2 mph - N/A   Overcast
5:15 AM 64.4 °F 59.0 °F 83% 29.80 in 10.0 mi NE 10.4 mph 16.1 mph N/A   Overcast
5:35 AM 64.4 °F 59.0 °F 83% 29.80 in 10.0 mi NE 10.4 mph - N/A   Overcast
5:55 AM 64.4 °F 57.2 °F 77% 29.80 in 10.0 mi NE 6.9 mph 17.3 mph N/A   Overcast
6:15 AM 64.4 °F 57.2 °F 77% 29.80 in 10.0 mi NNE 6.9 mph 17.3 mph N/A   Overcast
6:35 AM 64.4 °F 57.2 °F 77% 29.80 in 10.0 mi NNE 8.1 mph 16.1 mph N/A   Overcast
6:55 AM 64.4 °F 57.2 °F 77% 29.79 in 10.0 mi NNE 5.8 mph - N/A   Overcast
7:15 AM 64.4 °F 57.2 °F 77% 29.79 in 10.0 mi NNE 9.2 mph - N/A   Overcast
7:55 AM 64.4 °F 57.2 °F 77% 29.80 in 10.0 mi NNE 6.9 mph - N/A   Overcast
8:15 AM 64.4 °F 57.2 °F 77% 29.80 in 10.0 mi NNE 8.1 mph - N/A   Overcast
8:35 AM 64.4 °F 57.2 °F 77% 29.80 in 10.0 mi NNE 11.5 mph 17.3 mph N/A   Mostly Cloudy
8:55 AM 64.4 °F 57.2 °F 77% 29.81 in 10.0 mi NNE 9.2 mph - N/A   Clear
9:15 AM 64.4 °F 55.4 °F 73% 29.81 in 10.0 mi NNE 15.0 mph 21.9 mph N/A   Partly Cloudy
9:35 AM 64.4 °F 55.4 °F 73% 29.81 in 10.0 mi NNE 9.2 mph 16.1 mph N/A   Mostly Cloudy
9:55 AM 64.4 °F 55.4 °F 73% 29.82 in 10.0 mi NNE 9.2 mph 17.3 mph N/A   Overcast
10:15 AM 64.4 °F 55.4 °F 73% 29.81 in 10.0 mi NNE 8.1 mph 19.6 mph N/A   Overcast
10:35 AM 64.4 °F 55.4 °F 73% 29.80 in 10.0 mi NNE 11.5 mph 21.9 mph N/A   Overcast
10:55 AM 64.4 °F 55.4 °F 73% 29.79 in 10.0 mi NNE 11.5 mph 19.6 mph N/A   Overcast
11:35 AM 66.2 °F 55.4 °F 68% 29.79 in 10.0 mi NE 11.5 mph 23.0 mph N/A   Overcast
11:55 AM 66.2 °F 55.4 °F 68% 29.78 in 10.0 mi NE 13.8 mph 18.4 mph N/A   Overcast
12:15 PM 66.2 °F 55.4 °F 68% 29.78 in 10.0 mi NE 11.5 mph 17.3 mph N/A   Overcast
12:35 PM 66.2 °F 55.4 °F 68% 29.78 in 10.0 mi NNE 10.4 mph 17.3 mph N/A   Overcast
12:55 PM 66.2 °F 55.4 °F 68% 29.76 in 10.0 mi NNE 13.8 mph 19.6 mph N/A   Overcast
1:15 PM 66.2 °F 55.4 °F 68% 29.75 in 10.0 mi NNE 9.2 mph 17.3 mph N/A   Overcast
1:35 PM 66.2 °F 55.4 °F 68% 29.74 in 10.0 mi NNE 10.4 mph 17.3 mph N/A   Overcast
1:55 PM 66.2 °F 55.4 °F 68% 29.73 in 10.0 mi NE 13.8 mph 23.0 mph N/A   Overcast
2:15 PM 66.2 °F 55.4 °F 68% 29.72 in 10.0 mi NE 12.7 mph 21.9 mph N/A   Scattered Clouds
2:35 PM 66.2 °F 55.4 °F 68% 29.72 in 10.0 mi NE 12.7 mph 20.7 mph N/A   Scattered Clouds
2:55 PM 66.2 °F 55.4 °F 68% 29.72 in 10.0 mi NNE 9.2 mph 17.3 mph N/A   Scattered Clouds
3:15 PM 66.2 °F 53.6 °F 64% 29.70 in 10.0 mi NE 15.0 mph 20.7 mph N/A   Partly Cloudy
3:35 PM 66.2 °F 53.6 °F 64% 29.71 in 10.0 mi NNE 15.0 mph 24.2 mph N/A   Mostly Cloudy
3:55 PM 66.2 °F 53.6 °F 64% 29.71 in 10.0 mi NNE 12.7 mph 19.6 mph N/A   Overcast
4:15 PM 66.2 °F 53.6 °F 64% 29.70 in 10.0 mi NE 13.8 mph 19.6 mph N/A   Overcast
4:35 PM 66.2 °F 53.6 °F 64% 29.71 in 10.0 mi NE 11.5 mph 23.0 mph N/A   Overcast
4:55 PM 64.4 °F 53.6 °F 68% 29.70 in 10.0 mi NE 13.8 mph 19.6 mph N/A   Overcast
5:15 PM 64.4 °F 53.6 °F 68% 29.70 in 10.0 mi NNE 10.4 mph 18.4 mph N/A   Overcast
5:35 PM 64.4 °F 53.6 °F 68% 29.70 in 10.0 mi NNE 10.4 mph 20.7 mph N/A   Overcast
5:55 PM 64.4 °F 53.6 °F 68% 29.69 in 10.0 mi NNE 12.7 mph 20.7 mph N/A   Overcast
6:15 PM 64.4 °F 53.6 °F 68% 29.69 in 10.0 mi NNE 8.1 mph 20.7 mph N/A   Mostly Cloudy
6:35 PM 62.6 °F 53.6 °F 72% 29.69 in 10.0 mi NNE 10.4 mph 17.3 mph N/A   Mostly Cloudy
6:55 PM 62.6 °F 51.8 °F 68% 29.69 in 10.0 mi NNE 11.5 mph 19.6 mph N/A   Mostly Cloudy
7:15 PM 62.6 °F 51.8 °F 68% 29.69 in 10.0 mi NNE 11.5 mph 20.7 mph N/A   Mostly Cloudy
7:35 PM 62.6 °F 51.8 °F 68% 29.69 in 10.0 mi NNE 9.2 mph - N/A   Mostly Cloudy
7:55 PM 62.6 °F 51.8 °F 68% 29.69 in 10.0 mi NNE 9.2 mph - N/A   Mostly Cloudy
8:15 PM 62.6 °F 51.8 °F 68% 29.70 in 10.0 mi NNE 9.2 mph 16.1 mph N/A   Scattered Clouds
8:35 PM 62.6 °F 51.8 °F 68% 29.69 in 10.0 mi NE 11.5 mph 18.4 mph N/A   Scattered Clouds
8:55 PM 62.6 °F 51.8 °F 68% 29.70 in 10.0 mi NNE 6.9 mph 17.3 mph N/A   Mostly Cloudy
9:15 PM 62.6 °F 51.8 °F 68% 29.70 in 10.0 mi NNE 9.2 mph 16.1 mph N/A   Scattered Clouds
9:35 PM 62.6 °F 51.8 °F 68% 29.70 in 10.0 mi NNE 10.4 mph - N/A   Partly Cloudy
9:55 PM 62.6 °F 51.8 °F 68% 29.70 in 10.0 mi NNE 9.2 mph 16.1 mph N/A   Mostly Cloudy
10:15 PM 60.8 °F 51.8 °F 72% 29.70 in 10.0 mi NNE 8.1 mph - N/A   Mostly Cloudy
10:35 PM 60.8 °F 51.8 °F 72% 29.69 in 10.0 mi North 10.4 mph 18.4 mph N/A   Partly Cloudy
10:55 PM 60.8 °F 51.8 °F 72% 29.70 in 10.0 mi NNE 11.5 mph 19.6 mph N/A   Partly Cloudy
11:15 PM 60.8 °F 51.8 °F 72% 29.70 in 10.0 mi NNE 13.8 mph 18.4 mph N/A   Mostly Cloudy
11:35 PM 60.8 °F 51.8 °F 72% 29.69 in 10.0 mi NNE 10.4 mph 17.3 mph N/A   Overcast
11:55 PM 60.8 °F 51.8 °F 72% 29.68 in 10.0 mi NNE 5.8 mph 19.6 mph N/A   Overcast